Regional Weather Roundup
Issued by NWS

Home | Current Version | Previous Version | Graphics & Text | Print | Product List | Glossary On
Versions: 1 2 3 4 5 6 7 8 9 10 11 12 13 14 15 16 17 18 19 20 21 22 23 24 25 26 27 28 29 30 31 32 33 34 35 36 37 38 39 40 41 42 43 44 45 46 47 48 49 50
843
ASUS44 KLIX 240205
RWRLA
LOUISIANA WEATHER ROUNDUP
NATIONAL WEATHER SERVICE NEW ORLEANS LA
900 PM CDT WED APR 23 2014

NOTE: "FAIR" INDICATES FEW OR NO CLOUDS BELOW 12,000 FEET WITH NO
      SIGNIFICANT WEATHER AND/OR OBSTRUCTIONS TO VISIBILITY.
      SKY/WX - SKY CONDITION AND SIGNIFICANT WEATHER.
      TMP - AIR TEMPERATURE.    DP   - DEWPOINT TEMPERATURE.
      RH  - RELATIVE HUMIDITY.  PRES - PRESSURE.
      HX  - HEAT INDEX.         WCI  - WIND CHILL INDEX.

*  THESE STATIONS ARE NOT NWS OR FAA STATIONS AND ARE NOT UNDER
   NWS QUALITY CONTROL.

LAZ040-048-061>063-065-066-069-240300-
SOUTHEAST LOUISIANA

CITY           SKY/WX    TMP DP  RH WIND       PRES   REMARKS
N.O. AUDUBON     N/A     72  64  76 MISG        N/A
N.O. INTL ARPT PTCLDY    72  65  78 S10       29.92R
N.O. LAKEFRONT CLEAR     74  64  71 SW10      29.92R
N.O. DOWNTOWN* FAIR      75  61  60 S7        29.92S
SLIDELL        CLEAR     66  58  75 CALM      29.91R
BATON ROUGE    MOCLDY    70  59  68 CALM      29.89R
BOOTHVILLE     CLEAR     72  66  81 SW7       29.93R
BELLE CHASSE   PTCLDY    69  63  81 SW3       29.91S
BOGALUSA*        N/A     71  59  64 CALM      29.92R
GALLIANO*      CLEAR     71  64  79 S3        29.92S
NEW ROADS*     FAIR      70  57  62 CALM      29.89S
GONZALES*      FAIR      73  65  77 S8        29.90R
HAMMOND*       CLEAR     72  57  60 CALM      29.92R
HOUMA*           N/A     70  61  72 CALM      29.92R
PORT FOURCHON* CLEAR     73  66  78 VRB5      29.94S

$$

LAZ041-044-053-054-240300-
SOUTHWEST LOUISIANA

CITY           SKY/WX    TMP DP  RH WIND       PRES   REMARKS
LAKE CHARLES   CLEAR     68  64  87 S3        29.89R
LAFAYETTE      CLEAR     71  63  75 S7        29.90R
PATTERSON      CLEAR     68  64  88 S5        29.95S
SALT POINT       N/A     72  67  84 CALM      29.91R
NEW IBERIA     CLEAR     70  64  81 S5        29.91R
CHENAULT AIRPK CLEAR     72  63  73 S5        29.90R

$$

LAZ027-028-240300-
CENTRAL LOUISIANA

CITY           SKY/WX    TMP DP  RH WIND       PRES   REMARKS
FORT POLK      CLEAR     69  58  67 S6        29.88R
ALEXANDRIA INT CLEAR     70  55  59 CALM      29.86R
ALEXANDRIA     CLEAR     65  57  75 CALM      29.89R

$$

LAZ001-002-240300-
NORTHWEST LOUISIANA

CITY           SKY/WX    TMP DP  RH WIND       PRES   REMARKS
SHREVEPORT     PTCLDY    70  59  68 SE3       29.85R
BARKSDALE AFB  PTCLDY    71  57  60 SE5       29.85R
DTN SHREVEPORT CLEAR     73  56  54 CALM      29.85R

$$

LAZ014-016-240300-
NORTHEAST LOUISIANA

CITY           SKY/WX    TMP DP  RH WIND       PRES   REMARKS
MONROE         CLEAR     63  52  67 E3        29.90S
TALLULAH       CLEAR     63  56  78 CALM      29.91R

$$




USA.gov is the U.S. government's official web portal to all federal, state and local government web resources and services.